Time,TemperatureF,DewpointF,PressureIn,WindDirection,WindDirectionDegrees,WindSpeedMPH,WindSpeedGustMPH,Humidity,HourlyPrecipIn,Conditions,Clouds,dailyrainin,SoftwareType,DateUTC
2013-04-09 00:00:00,33.9,32.9,29.97,ENE,73,3.0,5.0,96,0.00,,---,0.70,VWS V14.01,2013-04-09 04:00:00,
2013-04-09 00:05:00,33.9,32.9,29.98,NE,36,4.0,6.0,96,0.00,,---,0.00,VWS V14.01,2013-04-09 04:05:00,
2013-04-09 00:10:00,34.0,33.0,29.98,NNE,21,7.0,8.0,96,0.00,,---,0.00,VWS V14.01,2013-04-09 04:10:00,
2013-04-09 00:15:00,34.1,33.1,29.99,NNE,23,4.0,8.0,96,0.00,,---,0.00,VWS V14.01,2013-04-09 04:15:00,
2013-04-09 00:20:00,34.1,33.1,29.98,NNE,23,3.0,8.0,96,0.00,,---,0.00,VWS V14.01,2013-04-09 04:20:00,
2013-04-09 00:25:00,34.2,33.2,29.99,NNE,23,2.0,8.0,96,0.00,,---,0.00,VWS V14.01,2013-04-09 04:25:00,
2013-04-09 00:30:00,34.3,33.3,30.00,NNE,23,4.0,8.0,96,0.00,,---,0.00,VWS V14.01,2013-04-09 04:30:00,
2013-04-09 00:35:00,34.3,33.3,30.00,NNE,23,4.0,7.0,96,0.00,,---,0.00,VWS V14.01,2013-04-09 04:35:00,
2013-04-09 00:40:00,34.2,33.2,30.00,NNE,23,2.0,7.0,96,0.00,,---,0.00,VWS V14.01,2013-04-09 04:40:00,
2013-04-09 00:45:00,34.1,33.1,30.00,NNE,23,0.0,7.0,96,0.00,,---,0.00,VWS V14.01,2013-04-09 04:45:00,
2013-04-09 00:50:00,34.0,32.7,30.00,NNE,23,2.0,7.0,95,0.00,,---,0.00,VWS V14.01,2013-04-09 04:50:00,
2013-04-09 00:55:00,33.9,32.6,29.99,NNE,23,0.0,7.0,95,0.00,,---,0.00,VWS V14.01,2013-04-09 04:55:00,
2013-04-09 01:00:00,34.0,33.0,29.99,NNE,23,0.0,7.0,96,0.00,,---,0.00,VWS V14.01,2013-04-09 05:00:00,
2013-04-09 01:05:00,34.1,33.1,30.00,NNE,23,2.0,2.0,96,0.00,,---,0.00,VWS V14.01,2013-04-09 05:05:00,
2013-04-09 01:10:00,34.2,33.2,30.00,NNE,23,2.0,3.0,96,0.00,,---,0.00,VWS V14.01,2013-04-09 05:10:00,
2013-04-09 01:15:00,34.2,33.2,29.99,NNE,23,0.0,3.0,96,0.00,,---,0.00,VWS V14.01,2013-04-09 05:15:00,
2013-04-09 01:21:00,34.3,33.3,30.00,NNE,23,1.0,3.0,96,0.00,,---,0.00,VWS V14.01,2013-04-09 05:21:00,
2013-04-09 01:26:00,34.2,32.9,30.00,NNE,23,1.0,3.0,95,0.00,,---,0.00,VWS V14.01,2013-04-09 05:26:00,
2013-04-09 01:31:00,34.1,33.1,30.00,NNE,23,1.0,3.0,96,0.00,,---,0.00,VWS V14.01,2013-04-09 05:31:00,
2013-04-09 01:36:00,34.1,32.8,30.00,NNE,23,3.0,4.0,95,0.00,,---,0.00,VWS V14.01,2013-04-09 05:36:00,
2013-04-09 01:41:00,34.2,33.2,30.01,NNE,23,3.0,4.0,96,0.00,,---,0.00,VWS V14.01,2013-04-09 05:41:00,
2013-04-09 01:46:00,34.3,33.3,30.01,NNE,23,5.0,5.0,96,0.00,,---,0.00,VWS V14.01,2013-04-09 05:46:00,
2013-04-09 01:51:00,34.3,33.3,30.01,NNE,23,4.0,5.0,96,0.00,,---,0.00,VWS V14.01,2013-04-09 05:51:00,
2013-04-09 01:56:00,34.3,33.0,30.01,NNE,23,4.0,5.0,95,0.00,,---,0.00,VWS V14.01,2013-04-09 05:56:00,
2013-04-09 02:01:00,34.1,32.8,30.01,NNE,23,4.0,5.0,95,0.00,,---,0.00,VWS V14.01,2013-04-09 06:01:00,
2013-04-09 02:06:00,34.1,33.1,30.01,NNE,23,4.0,5.0,96,0.00,,---,0.00,VWS V14.01,2013-04-09 06:06:00,
2013-04-09 02:11:00,34.0,32.7,30.01,NNE,23,3.0,5.0,95,0.00,,---,0.00,VWS V14.01,2013-04-09 06:11:00,
2013-04-09 02:16:00,34.0,33.0,30.01,NNE,23,4.0,5.0,96,0.00,,---,0.00,VWS V14.01,2013-04-09 06:16:00,
2013-04-09 02:22:00,34.1,33.1,30.01,NNE,23,4.0,5.0,96,0.00,,---,0.00,VWS V14.01,2013-04-09 06:22:00,
2013-04-09 02:27:00,34.2,33.2,30.02,NNE,23,7.0,7.0,96,0.00,,---,0.00,VWS V14.01,2013-04-09 06:27:00,
2013-04-09 02:32:00,34.2,33.2,30.01,NNE,23,2.0,3.0,96,0.00,,---,0.00,VWS V14.01,2013-04-09 06:32:00,
2013-04-09 02:37:00,34.3,33.3,30.02,NNE,14,4.0,8.0,96,0.00,,---,0.00,VWS V14.01,2013-04-09 06:37:00,
2013-04-09 02:42:00,34.3,33.3,30.03,NNE,14,5.0,8.0,96,0.00,,---,0.00,VWS V14.01,2013-04-09 06:42:00,
2013-04-09 02:47:00,34.2,33.2,30.02,NNE,14,4.0,8.0,96,0.00,,---,0.00,VWS V14.01,2013-04-09 06:47:00,
2013-04-09 02:52:00,34.0,33.0,30.02,NNE,14,3.0,8.0,96,0.00,,---,0.00,VWS V14.01,2013-04-09 06:52:00,
2013-04-09 02:57:00,33.9,32.9,30.02,NNE,14,2.0,8.0,96,0.00,,---,0.00,VWS V14.01,2013-04-09 06:57:00,
2013-04-09 03:02:00,33.8,32.8,30.02,NNE,14,1.0,2.0,96,0.00,,---,0.00,VWS V14.01,2013-04-09 07:02:00,
2013-04-09 03:07:00,33.7,32.7,30.01,NNE,14,0.0,2.0,96,0.00,,---,0.00,VWS V14.01,2013-04-09 07:07:00,
2013-04-09 03:12:00,33.7,32.7,30.02,NNE,14,2.0,3.0,96,0.00,,---,0.00,VWS V14.01,2013-04-09 07:12:00,
2013-04-09 03:17:00,33.8,32.8,30.02,NNE,14,1.0,3.0,96,0.00,,---,0.00,VWS V14.01,2013-04-09 07:17:00,
2013-04-09 03:22:00,33.8,32.8,30.02,NNE,14,2.0,3.0,96,0.00,,---,0.00,VWS V14.01,2013-04-09 07:22:00,
2013-04-09 03:27:00,33.8,32.8,30.02,NNE,14,2.0,4.0,96,0.00,,---,0.00,VWS V14.01,2013-04-09 07:27:00,
2013-04-09 03:32:00,33.8,32.8,30.02,NNE,14,3.0,5.0,96,0.00,,---,0.00,VWS V14.01,2013-04-09 07:32:00,
2013-04-09 03:37:00,33.9,32.9,30.02,NNE,14,4.0,5.0,96,0.00,,---,0.00,VWS V14.01,2013-04-09 07:37:00,
2013-04-09 03:42:00,33.9,32.9,30.02,NNE,14,1.0,5.0,96,0.00,,---,0.00,VWS V14.01,2013-04-09 07:42:00,
2013-04-09 03:47:00,33.9,32.9,30.02,NNE,14,1.0,5.0,96,0.00,,---,0.00,VWS V14.01,2013-04-09 07:47:00,
2013-04-09 03:52:00,33.9,32.9,30.03,NNE,14,2.0,5.0,96,0.00,,---,0.00,VWS V14.01,2013-04-09 07:52:00,
2013-04-09 03:57:00,33.9,32.9,30.03,NNE,14,3.0,5.0,96,0.00,,---,0.00,VWS V14.01,2013-04-09 07:57:00,
2013-04-09 04:02:00,33.8,33.0,30.03,NNE,14,2.0,2.0,97,0.00,,---,0.00,VWS V14.01,2013-04-09 08:02:00,
2013-04-09 04:07:00,33.7,32.9,30.04,NNE,14,2.0,3.0,97,0.00,,---,0.00,VWS V14.01,2013-04-09 08:07:00,
2013-04-09 04:12:00,33.7,32.9,30.04,NNE,14,3.0,3.0,97,0.00,,---,0.00,VWS V14.01,2013-04-09 08:12:00,
2013-04-09 04:18:00,33.7,32.9,30.04,NNE,14,3.0,3.0,97,0.00,,---,0.00,VWS V14.01,2013-04-09 08:18:00,
2013-04-09 04:23:00,33.6,32.8,30.04,NNE,14,2.0,3.0,97,0.00,,---,0.00,VWS V14.01,2013-04-09 08:23:00,
2013-04-09 04:28:00,33.6,32.8,30.03,NNE,14,2.0,3.0,97,0.00,,---,0.00,VWS V14.01,2013-04-09 08:28:00,
2013-04-09 04:33:00,33.5,32.7,30.04,NNE,14,2.0,3.0,97,0.00,,---,0.00,VWS V14.01,2013-04-09 08:33:00,
2013-04-09 04:38:00,33.6,32.8,30.03,NNE,14,2.0,4.0,97,0.00,,---,0.00,VWS V14.01,2013-04-09 08:38:00,
2013-04-09 04:43:00,33.5,32.7,30.04,NNE,14,0.0,4.0,97,0.00,,---,0.00,VWS V14.01,2013-04-09 08:43:00,
2013-04-09 04:48:00,33.5,32.7,30.04,NNE,14,3.0,4.0,97,0.00,,---,0.00,VWS V14.01,2013-04-09 08:48:00,
2013-04-09 04:53:00,33.6,32.8,30.04,NNE,14,1.0,4.0,97,0.00,,---,0.00,VWS V14.01,2013-04-09 08:53:00,
2013-04-09 04:58:00,33.5,32.7,30.04,NNE,14,2.0,4.0,97,0.00,,---,0.00,VWS V14.01,2013-04-09 08:58:00,
2013-04-09 05:03:00,33.6,32.8,30.04,NNE,14,3.0,4.0,97,0.00,,---,0.00,VWS V14.01,2013-04-09 09:03:00,
2013-04-09 05:08:00,33.5,32.7,30.04,NNE,14,2.0,4.0,97,0.00,,---,0.00,VWS V14.01,2013-04-09 09:08:00,
2013-04-09 05:13:00,33.5,32.7,30.04,NNE,14,2.0,4.0,97,0.00,,---,0.00,VWS V14.01,2013-04-09 09:13:00,
2013-04-09 05:18:00,33.5,32.7,30.03,NNE,14,3.0,4.0,97,0.00,,---,0.00,VWS V14.01,2013-04-09 09:18:00,
2013-04-09 05:23:00,33.5,32.7,30.03,NNE,14,3.0,4.0,97,0.00,,---,0.00,VWS V14.01,2013-04-09 09:23:00,
2013-04-09 05:28:00,33.4,32.6,30.03,NNE,14,2.0,4.0,97,0.00,,---,0.00,VWS V14.01,2013-04-09 09:28:00,
2013-04-09 05:33:00,33.4,32.6,30.03,NNE,14,3.0,3.0,97,0.00,,---,0.00,VWS V14.01,2013-04-09 09:33:00,
2013-04-09 05:38:00,33.4,32.6,30.03,NNE,14,2.0,3.0,97,0.00,,---,0.00,VWS V14.01,2013-04-09 09:38:00,
2013-04-09 05:43:00,33.4,32.6,30.03,NNE,14,3.0,3.0,97,0.00,,---,0.00,VWS V14.01,2013-04-09 09:43:00,
2013-04-09 05:48:00,33.4,32.6,30.04,NNE,14,4.0,4.0,97,0.00,,---,0.00,VWS V14.01,2013-04-09 09:48:00,
2013-04-09 05:53:00,33.4,32.6,30.04,NNE,14,3.0,4.0,97,0.00,,---,0.00,VWS V14.01,2013-04-09 09:53:00,
2013-04-09 05:58:00,33.4,32.6,30.04,NNE,14,3.0,4.0,97,0.00,,---,0.00,VWS V14.01,2013-04-09 09:58:00,
2013-04-09 06:03:00,33.4,32.6,30.04,NNE,14,3.0,3.0,97,0.00,,---,0.00,VWS V14.01,2013-04-09 10:03:00,
2013-04-09 06:08:00,33.4,32.6,30.04,NNE,14,1.0,4.0,97,0.00,,---,0.00,VWS V14.01,2013-04-09 10:08:00,
2013-04-09 06:13:00,33.4,32.6,30.03,NNE,14,2.0,4.0,97,0.00,,---,0.00,VWS V14.01,2013-04-09 10:13:00,
2013-04-09 06:18:00,33.4,32.6,30.04,NNE,14,2.0,4.0,97,0.00,,---,0.00,VWS V14.01,2013-04-09 10:18:00,
2013-04-09 06:23:00,33.4,32.6,30.04,NNE,14,2.0,4.0,97,0.00,,---,0.00,VWS V14.01,2013-04-09 10:23:00,
2013-04-09 06:28:00,33.4,32.6,30.04,NNE,14,2.0,4.0,97,0.00,,---,0.00,VWS V14.01,2013-04-09 10:28:00,
2013-04-09 06:33:00,33.4,32.6,30.04,NNE,14,1.0,3.0,97,0.00,,---,0.00,VWS V14.01,2013-04-09 10:33:00,
2013-04-09 06:38:00,33.4,32.6,30.04,NNE,14,2.0,3.0,97,0.00,,---,0.00,VWS V14.01,2013-04-09 10:38:00,
2013-04-09 06:43:00,33.4,32.6,30.04,NNE,14,3.0,4.0,97,0.00,,---,0.00,VWS V14.01,2013-04-09 10:43:00,
2013-04-09 06:48:00,33.4,32.6,30.04,NNE,14,3.0,4.0,97,0.00,,---,0.00,VWS V14.01,2013-04-09 10:48:00,
2013-04-09 06:53:00,33.4,32.6,30.05,NNE,14,1.0,4.0,97,0.00,,---,0.00,VWS V14.01,2013-04-09 10:53:00,
2013-04-09 06:59:00,33.4,32.6,30.05,NNE,14,2.0,4.0,97,0.00,,---,0.00,VWS V14.01,2013-04-09 10:59:00,
2013-04-09 07:04:00,33.4,32.6,30.05,NNE,14,3.0,3.0,97,0.00,,---,0.00,VWS V14.01,2013-04-09 11:04:00,
2013-04-09 07:09:00,33.4,32.6,30.05,NNE,14,3.0,3.0,97,0.00,,---,0.00,VWS V14.01,2013-04-09 11:09:00,
2013-04-09 07:14:00,33.4,32.6,30.06,NNE,14,2.0,3.0,97,0.00,,---,0.00,VWS V14.01,2013-04-09 11:14:00,
2013-04-09 07:19:00,33.4,32.6,30.06,NNE,14,2.0,3.0,97,0.00,,---,0.00,VWS V14.01,2013-04-09 11:19:00,
2013-04-09 07:24:00,33.4,32.9,30.06,NNE,14,4.0,4.0,98,0.00,,---,0.00,VWS V14.01,2013-04-09 11:24:00,
2013-04-09 07:29:00,33.4,32.9,30.06,NNE,14,2.0,4.0,98,0.00,,---,0.00,VWS V14.01,2013-04-09 11:29:00,
2013-04-09 07:34:00,33.4,32.9,30.05,NNE,14,1.0,2.0,98,0.00,,---,0.00,VWS V14.01,2013-04-09 11:34:00,
2013-04-09 07:39:00,33.4,32.9,30.05,NNE,14,0.0,2.0,98,0.00,,---,0.00,VWS V14.01,2013-04-09 11:39:00,
2013-04-09 07:44:00,33.4,32.9,30.06,NNE,14,2.0,2.0,98,0.00,,---,0.00,VWS V14.01,2013-04-09 11:44:00,
2013-04-09 07:49:00,33.4,32.9,30.07,NNE,14,3.0,3.0,98,0.00,,---,0.00,VWS V14.01,2013-04-09 11:49:00,
2013-04-09 07:54:00,33.5,33.0,30.07,NNE,14,3.0,3.0,98,0.00,,---,0.00,VWS V14.01,2013-04-09 11:54:00,
2013-04-09 07:59:00,33.5,33.0,30.08,NNE,14,4.0,5.0,98,0.00,,---,0.00,VWS V14.01,2013-04-09 11:59:00,
2013-04-09 08:05:00,33.6,33.1,30.09,NNE,14,0.0,5.0,98,0.00,,---,0.00,VWS V14.01,2013-04-09 12:05:00,
2013-04-09 08:10:00,33.7,33.2,30.09,NNE,14,0.0,5.0,98,0.00,,---,0.00,VWS V14.01,2013-04-09 12:10:00,
2013-04-09 08:15:00,33.8,33.3,30.09,NNE,14,2.0,5.0,98,0.00,,---,0.00,VWS V14.01,2013-04-09 12:15:00,
2013-04-09 08:20:00,33.8,33.3,30.08,NNE,14,0.0,5.0,98,0.00,,---,0.00,VWS V14.01,2013-04-09 12:20:00,
2013-04-09 08:25:00,33.8,33.3,30.09,NNE,14,2.0,5.0,98,0.00,,---,0.00,VWS V14.01,2013-04-09 12:25:00,
2013-04-09 08:30:00,33.8,33.3,30.09,NNE,14,2.0,5.0,98,0.00,,---,0.00,VWS V14.01,2013-04-09 12:30:00,
2013-04-09 08:35:00,33.8,33.3,30.09,NNE,14,1.0,3.0,98,0.00,,---,0.00,VWS V14.01,2013-04-09 12:35:00,
2013-04-09 08:40:00,33.8,33.3,30.09,NNE,14,2.0,3.0,98,0.00,,---,0.00,VWS V14.01,2013-04-09 12:40:00,
2013-04-09 08:45:00,33.8,33.3,30.08,NNE,14,1.0,3.0,98,0.00,,---,0.00,VWS V14.01,2013-04-09 12:45:00,
2013-04-09 08:50:00,33.8,33.3,30.08,NNE,14,1.0,3.0,98,0.00,,---,0.00,VWS V14.01,2013-04-09 12:50:00,
2013-04-09 08:55:00,33.8,33.3,30.08,NNE,14,2.0,3.0,98,0.00,,---,0.00,VWS V14.01,2013-04-09 12:55:00,
2013-04-09 09:00:00,33.9,33.4,30.08,NNE,14,2.0,3.0,98,0.00,,---,0.00,VWS V14.01,2013-04-09 13:00:00,
2013-04-09 09:05:00,33.9,33.4,30.09,NNE,14,4.0,5.0,98,0.00,,---,0.00,VWS V14.01,2013-04-09 13:05:00,
2013-04-09 09:10:00,34.1,33.6,30.09,NNE,14,4.0,5.0,98,0.00,,---,0.00,VWS V14.01,2013-04-09 13:10:00,
2013-04-09 09:15:00,34.2,33.7,30.08,NNE,14,1.0,5.0,98,0.00,,---,0.00,VWS V14.01,2013-04-09 13:15:00,
2013-04-09 09:20:00,34.2,33.7,30.07,NNE,14,0.0,5.0,98,0.00,,---,0.00,VWS V14.01,2013-04-09 13:20:00,
2013-04-09 09:25:00,34.3,33.8,30.06,NNE,14,0.0,5.0,98,0.00,,---,0.00,VWS V14.01,2013-04-09 13:25:00,
2013-04-09 09:30:00,34.4,33.9,30.07,NNE,14,0.0,5.0,98,0.00,,---,0.00,VWS V14.01,2013-04-09 13:30:00,
2013-04-09 09:35:00,34.6,34.1,30.06,NNE,14,0.0,2.0,98,0.00,,---,0.00,VWS V14.01,2013-04-09 13:35:00,
2013-04-09 09:40:00,34.8,34.3,30.06,NNE,14,0.0,2.0,98,0.00,,---,0.00,VWS V14.01,2013-04-09 13:40:00,
2013-04-09 09:45:00,35.1,34.6,30.05,NNE,14,0.0,2.0,98,0.00,,---,0.00,VWS V14.01,2013-04-09 13:45:00,
2013-04-09 09:50:00,35.5,35.0,30.05,NNE,14,0.0,2.0,98,0.00,,---,0.00,VWS V14.01,2013-04-09 13:50:00,
2013-04-09 09:55:00,35.9,35.4,30.05,NNE,14,0.0,2.0,98,0.00,,---,0.00,VWS V14.01,2013-04-09 13:55:00,
2013-04-09 10:00:00,35.8,35.3,30.05,NNE,14,0.0,2.0,98,0.00,,---,0.00,VWS V14.01,2013-04-09 14:00:00,
2013-04-09 10:05:00,35.7,34.9,30.05,NNE,14,0.0,0.0,97,0.00,,---,0.00,VWS V14.01,2013-04-09 14:05:00,
2013-04-09 10:11:00,35.8,35.0,30.05,NNE,14,0.0,2.0,97,0.00,,---,0.00,VWS V14.01,2013-04-09 14:11:00,
2013-04-09 10:15:00,35.9,35.1,30.05,NNE,14,0.0,2.0,97,0.00,,---,0.00,VWS V14.01,2013-04-09 14:15:00,
2013-04-09 10:21:00,35.7,34.9,30.05,NNE,14,1.0,2.0,97,0.00,,---,0.00,VWS V14.01,2013-04-09 14:21:00,
2013-04-09 10:26:00,35.7,34.7,30.06,NNE,14,2.0,3.0,96,0.00,,---,0.00,VWS V14.01,2013-04-09 14:26:00,
2013-04-09 10:31:00,35.5,34.5,30.06,NNE,14,2.0,3.0,96,0.00,,---,0.00,VWS V14.01,2013-04-09 14:31:00,
2013-04-09 10:36:00,35.3,34.0,30.06,NNE,14,2.0,4.0,95,0.00,,---,0.00,VWS V14.01,2013-04-09 14:36:00,
2013-04-09 10:41:00,35.3,34.3,30.07,NNE,14,2.0,4.0,96,0.00,,---,0.00,VWS V14.01,2013-04-09 14:41:00,
2013-04-09 10:46:00,35.3,34.0,30.07,NNE,14,1.0,4.0,95,0.00,,---,0.00,VWS V14.01,2013-04-09 14:46:00,
2013-04-09 10:51:00,35.6,34.6,30.07,NNE,14,0.0,4.0,96,0.00,,---,0.00,VWS V14.01,2013-04-09 14:51:00,
2013-04-09 10:56:00,35.9,34.9,30.07,NNE,14,0.0,4.0,96,0.00,,---,0.00,VWS V14.01,2013-04-09 14:56:00,
2013-04-09 11:01:00,36.2,35.2,30.07,NNE,14,0.0,4.0,96,0.00,,---,0.00,VWS V14.01,2013-04-09 15:01:00,
2013-04-09 11:06:00,36.3,35.0,30.07,NNE,14,1.0,2.0,95,0.00,,---,0.00,VWS V14.01,2013-04-09 15:06:00,
2013-04-09 11:11:00,36.1,34.8,30.06,NNE,14,0.0,2.0,95,0.00,,---,0.00,VWS V14.01,2013-04-09 15:11:00,
2013-04-09 11:16:00,36.0,34.7,30.06,NNE,14,0.0,2.0,95,0.01,,---,0.01,VWS V14.01,2013-04-09 15:16:00,
2013-04-09 11:21:00,35.8,34.2,30.06,NNE,14,0.0,2.0,94,0.01,,---,0.01,VWS V14.01,2013-04-09 15:21:00,
2013-04-09 11:26:00,35.6,34.3,30.06,NNE,14,0.0,2.0,95,0.01,,---,0.01,VWS V14.01,2013-04-09 15:26:00,
2013-04-09 11:31:00,35.8,34.5,30.06,NNE,14,0.0,0.0,95,0.01,,---,0.01,VWS V14.01,2013-04-09 15:31:00,
2013-04-09 11:37:00,36.0,34.7,30.06,NNE,14,0.0,0.0,95,0.01,,---,0.01,VWS V14.01,2013-04-09 15:37:00,
2013-04-09 11:42:00,36.2,34.9,30.05,NNE,14,0.0,0.0,95,0.01,,---,0.01,VWS V14.01,2013-04-09 15:42:00,
2013-04-09 11:47:00,36.5,35.2,30.05,NNE,14,0.0,0.0,95,0.01,,---,0.01,VWS V14.01,2013-04-09 15:47:00,
2013-04-09 11:52:00,36.7,35.1,30.06,NNE,14,0.0,0.0,94,0.01,,---,0.01,VWS V14.01,2013-04-09 15:52:00,
2013-04-09 11:57:00,36.7,35.1,30.06,NNE,14,0.0,0.0,94,0.01,,---,0.01,VWS V14.01,2013-04-09 15:57:00,
2013-04-09 12:02:00,36.8,35.0,30.06,NNE,14,0.0,0.0,93,0.01,,---,0.01,VWS V14.01,2013-04-09 16:02:00,
2013-04-09 12:07:00,37.0,35.2,30.06,NNE,14,1.0,2.0,93,0.01,,---,0.01,VWS V14.01,2013-04-09 16:07:00,
2013-04-09 12:12:00,37.2,35.1,30.06,NNE,14,0.0,2.0,92,0.01,,---,0.01,VWS V14.01,2013-04-09 16:12:00,
2013-04-09 12:17:00,37.3,35.2,30.05,NNE,14,3.0,3.0,92,0.01,,---,0.01,VWS V14.01,2013-04-09 16:17:00,
2013-04-09 12:22:00,37.4,35.3,30.05,NNE,14,2.0,4.0,92,0.01,,---,0.01,VWS V14.01,2013-04-09 16:22:00,
2013-04-09 12:27:00,37.6,35.5,30.05,NNE,14,2.0,4.0,92,0.01,,---,0.01,VWS V14.01,2013-04-09 16:27:00,
2013-04-09 12:32:00,37.7,35.3,30.05,NNE,14,2.0,2.0,91,0.00,,---,0.01,VWS V14.01,2013-04-09 16:32:00,
2013-04-09 12:37:00,37.7,35.3,30.04,NNE,14,2.0,3.0,91,0.00,,---,0.01,VWS V14.01,2013-04-09 16:37:00,
2013-04-09 12:42:00,37.7,35.3,30.04,NNE,14,2.0,4.0,91,0.00,,---,0.01,VWS V14.01,2013-04-09 16:42:00,
2013-04-09 12:47:00,37.7,35.3,30.04,NNE,14,4.0,4.0,91,0.00,,---,0.01,VWS V14.01,2013-04-09 16:47:00,
2013-04-09 12:52:00,37.7,35.3,30.04,NNE,14,4.0,5.0,91,0.00,,---,0.01,VWS V14.01,2013-04-09 16:52:00,
2013-04-09 12:57:00,37.9,35.5,30.04,NNE,14,5.0,5.0,91,0.00,,---,0.01,VWS V14.01,2013-04-09 16:57:00,
2013-04-09 13:02:00,38.0,35.6,30.05,NNE,14,3.0,3.0,91,0.00,,---,0.01,VWS V14.01,2013-04-09 17:02:00,
2013-04-09 13:07:00,38.2,35.8,30.05,NNE,14,4.0,4.0,91,0.00,,---,0.01,VWS V14.01,2013-04-09 17:07:00,
2013-04-09 13:12:00,38.2,35.8,30.05,NNE,14,3.0,5.0,91,0.00,,---,0.01,VWS V14.01,2013-04-09 17:12:00,
2013-04-09 13:17:00,38.2,35.5,30.05,NNE,14,4.0,5.0,90,0.00,,---,0.01,VWS V14.01,2013-04-09 17:17:00,
2013-04-09 13:22:00,38.5,35.5,30.06,NNE,14,4.0,5.0,89,0.00,,---,0.01,VWS V14.01,2013-04-09 17:22:00,
2013-04-09 13:27:00,38.6,35.6,30.06,NNE,14,4.0,5.0,89,0.00,,---,0.01,VWS V14.01,2013-04-09 17:27:00,
2013-04-09 13:33:00,38.7,35.5,30.06,NNE,14,3.0,4.0,88,0.00,,---,0.01,VWS V14.01,2013-04-09 17:33:00,
2013-04-09 13:38:00,38.8,35.8,30.06,NNE,14,3.0,5.0,89,0.00,,---,0.01,VWS V14.01,2013-04-09 17:38:00,
2013-04-09 13:43:00,38.9,35.7,30.06,NNE,14,5.0,5.0,88,0.00,,---,0.01,VWS V14.01,2013-04-09 17:43:00,
2013-04-09 13:48:00,38.9,35.7,30.06,NNE,14,5.0,6.0,88,0.00,,---,0.01,VWS V14.01,2013-04-09 17:48:00,
2013-04-09 13:53:00,39.0,35.8,30.05,NNE,14,5.0,6.0,88,0.00,,---,0.01,VWS V14.01,2013-04-09 17:53:00,
2013-04-09 13:58:00,39.2,36.0,30.05,NNE,14,4.0,6.0,88,0.00,,---,0.01,VWS V14.01,2013-04-09 17:58:00,
2013-04-09 14:03:00,39.5,36.0,30.05,NNE,14,4.0,5.0,87,0.00,,---,0.01,VWS V14.01,2013-04-09 18:03:00,
2013-04-09 14:08:00,39.6,36.1,30.05,NNE,14,4.0,5.0,87,0.00,,---,0.01,VWS V14.01,2013-04-09 18:08:00,
2013-04-09 14:13:00,39.6,36.1,30.05,NNE,14,4.0,5.0,87,0.00,,---,0.01,VWS V14.01,2013-04-09 18:13:00,
2013-04-09 14:18:00,39.7,35.9,30.05,NNE,14,4.0,5.0,86,0.00,,---,0.01,VWS V14.01,2013-04-09 18:18:00,
2013-04-09 14:23:00,39.7,35.9,30.05,NNE,14,3.0,5.0,86,0.00,,---,0.01,VWS V14.01,2013-04-09 18:23:00,
2013-04-09 14:28:00,39.9,36.1,30.05,NNE,14,3.0,5.0,86,0.00,,---,0.01,VWS V14.01,2013-04-09 18:28:00,
2013-04-09 14:33:00,39.9,36.1,30.05,NNE,14,3.0,4.0,86,0.00,,---,0.01,VWS V14.01,2013-04-09 18:33:00,
2013-04-09 14:38:00,39.9,35.8,30.05,NNE,14,4.0,4.0,85,0.00,,---,0.01,VWS V14.01,2013-04-09 18:38:00,
2013-04-09 14:43:00,40.0,36.2,30.05,NNE,14,2.0,4.0,86,0.00,,---,0.01,VWS V14.01,2013-04-09 18:43:00,
2013-04-09 14:48:00,39.9,36.1,30.06,NNE,14,2.0,4.0,86,0.00,,---,0.01,VWS V14.01,2013-04-09 18:48:00,
2013-04-09 14:53:00,39.5,35.7,30.06,NNE,14,3.0,4.0,86,0.00,,---,0.01,VWS V14.01,2013-04-09 18:53:00,
2013-04-09 14:58:00,39.5,35.7,30.05,NNE,14,2.0,4.0,86,0.00,,---,0.01,VWS V14.01,2013-04-09 18:58:00,
2013-04-09 15:03:00,39.6,35.5,30.05,NNE,14,3.0,4.0,85,0.00,,---,0.01,VWS V14.01,2013-04-09 19:03:00,
2013-04-09 15:08:00,39.7,35.3,30.05,NNE,14,3.0,5.0,84,0.00,,---,0.01,VWS V14.01,2013-04-09 19:08:00,
2013-04-09 15:13:00,39.5,35.4,30.05,NNE,14,5.0,6.0,85,0.00,,---,0.01,VWS V14.01,2013-04-09 19:13:00,
2013-04-09 15:18:00,39.0,35.2,30.05,NNE,14,2.0,6.0,86,0.00,,---,0.01,VWS V14.01,2013-04-09 19:18:00,
2013-04-09 15:24:00,38.9,35.1,30.05,NNE,14,1.0,6.0,86,0.00,,---,0.01,VWS V14.01,2013-04-09 19:24:00,
2013-04-09 15:29:00,38.8,35.3,30.05,NNE,14,2.0,6.0,87,0.00,,---,0.01,VWS V14.01,2013-04-09 19:29:00,
2013-04-09 15:34:00,38.8,35.3,30.05,NNE,14,4.0,4.0,87,0.00,,---,0.01,VWS V14.01,2013-04-09 19:34:00,
2013-04-09 15:39:00,39.5,36.0,30.05,NNE,29,8.0,10.0,87,0.00,,---,0.01,VWS V14.01,2013-04-09 19:39:00,
2013-04-09 15:44:00,39.9,35.8,30.05,NE,50,6.0,10.0,85,0.00,,---,0.01,VWS V14.01,2013-04-09 19:44:00,
2013-04-09 15:49:00,39.8,35.7,30.04,NNE,22,2.0,10.0,85,0.00,,---,0.01,VWS V14.01,2013-04-09 19:49:00,
2013-04-09 15:54:00,39.6,35.5,30.04,NNE,13,7.0,10.0,85,0.00,,---,0.01,VWS V14.01,2013-04-09 19:54:00,
2013-04-09 15:59:00,39.5,35.4,30.04,NNE,17,7.0,11.0,85,0.00,,---,0.01,VWS V14.01,2013-04-09 19:59:00,
2013-04-09 16:04:00,39.4,35.3,30.03,North,7,4.0,8.0,85,0.00,,---,0.01,VWS V14.01,2013-04-09 20:04:00,
2013-04-09 16:09:00,39.4,35.3,30.03,NNE,13,5.0,8.0,85,0.00,,---,0.01,VWS V14.01,2013-04-09 20:09:00,
2013-04-09 16:14:00,39.5,35.4,30.03,NNE,17,4.0,8.0,85,0.00,,---,0.01,VWS V14.01,2013-04-09 20:14:00,
2013-04-09 16:19:00,39.6,35.2,30.03,North,2,6.0,8.0,84,0.00,,---,0.01,VWS V14.01,2013-04-09 20:19:00,
2013-04-09 16:25:00,39.6,35.2,30.03,NNE,12,6.0,8.0,84,0.00,,---,0.01,VWS V14.01,2013-04-09 20:25:00,
2013-04-09 16:30:00,39.6,35.2,30.03,NNE,12,6.0,9.0,84,0.00,,---,0.01,VWS V14.01,2013-04-09 20:30:00,
2013-04-09 16:35:00,39.6,35.2,30.03,North,8,7.0,9.0,84,0.00,,---,0.01,VWS V14.01,2013-04-09 20:35:00,
2013-04-09 16:40:00,39.7,35.0,30.02,NNE,19,3.0,9.0,83,0.00,,---,0.01,VWS V14.01,2013-04-09 20:40:00,
2013-04-09 16:45:00,39.7,35.0,30.02,NNE,14,5.0,9.0,83,0.00,,---,0.01,VWS V14.01,2013-04-09 20:45:00,
2013-04-09 16:50:00,39.6,34.9,30.02,NNE,14,5.0,9.0,83,0.00,,---,0.01,VWS V14.01,2013-04-09 20:50:00,
2013-04-09 16:55:00,39.6,34.9,30.03,NNE,13,5.0,9.0,83,0.00,,---,0.01,VWS V14.01,2013-04-09 20:55:00,
2013-04-09 17:00:00,38.6,34.2,30.02,North,359,6.0,9.0,84,0.00,,---,0.01,VWS V14.01,2013-04-09 21:00:00,
2013-04-09 17:05:00,38.6,34.5,30.02,North,9,5.0,7.0,85,0.00,,---,0.01,VWS V14.01,2013-04-09 21:05:00,
2013-04-09 17:10:00,38.3,34.5,30.02,North,6,5.0,7.0,86,0.00,,---,0.01,VWS V14.01,2013-04-09 21:10:00,
2013-04-09 17:15:00,38.6,34.5,30.02,NNE,18,7.0,7.0,85,0.00,,---,0.01,VWS V14.01,2013-04-09 21:15:00,
2013-04-09 17:20:00,39.0,34.9,30.02,NNE,19,8.0,8.0,85,0.00,,---,0.01,VWS V14.01,2013-04-09 21:20:00,
2013-04-09 17:25:00,39.2,34.8,30.02,North,2,6.0,8.0,84,0.00,,---,0.01,VWS V14.01,2013-04-09 21:25:00,
2013-04-09 17:30:00,39.1,34.7,30.01,North,2,2.0,8.0,84,0.00,,---,0.01,VWS V14.01,2013-04-09 21:30:00,
2013-04-09 17:35:00,38.7,34.6,30.01,North,2,4.0,4.0,85,0.00,,---,0.01,VWS V14.01,2013-04-09 21:35:00,
2013-04-09 17:40:00,38.6,34.5,30.01,NNW,345,4.0,5.0,85,0.00,,---,0.01,VWS V14.01,2013-04-09 21:40:00,
2013-04-09 17:45:00,38.5,34.7,30.02,NNW,345,4.0,5.0,86,0.00,,---,0.01,VWS V14.01,2013-04-09 21:45:00,
2013-04-09 17:50:00,38.6,34.5,30.02,NNW,345,5.0,5.0,85,0.00,,---,0.01,VWS V14.01,2013-04-09 21:50:00,
2013-04-09 17:55:00,38.5,34.4,30.02,NNW,337,6.0,6.0,85,0.00,,---,0.01,VWS V14.01,2013-04-09 21:55:00,
2013-04-09 18:01:00,38.2,34.4,30.02,NNW,337,7.0,8.0,86,0.00,,---,0.01,VWS V14.01,2013-04-09 22:01:00,
2013-04-09 18:05:00,38.0,34.2,30.02,NNW,339,9.0,10.0,86,0.00,,---,0.01,VWS V14.01,2013-04-09 22:05:00,
2013-04-09 18:10:00,38.2,34.4,30.02,NNW,336,7.0,10.0,86,0.00,,---,0.01,VWS V14.01,2013-04-09 22:10:00,
2013-04-09 18:16:00,37.9,34.1,30.02,NW,325,6.0,10.0,86,0.00,,---,0.01,VWS V14.01,2013-04-09 22:16:00,
2013-04-09 18:20:00,37.7,34.2,30.03,NW,325,9.0,10.0,87,0.00,,---,0.01,VWS V14.01,2013-04-09 22:20:00,
2013-04-09 18:26:00,37.6,34.4,30.03,NW,325,9.0,10.0,88,0.00,,---,0.01,VWS V14.01,2013-04-09 22:26:00,
2013-04-09 18:31:00,38.1,34.6,30.03,NNW,334,8.0,10.0,87,0.00,,---,0.01,VWS V14.01,2013-04-09 22:31:00,
2013-04-09 18:36:00,38.2,34.7,30.03,NNW,335,9.0,10.0,87,0.00,,---,0.01,VWS V14.01,2013-04-09 22:36:00,
2013-04-09 18:41:00,38.1,34.6,30.03,NNW,342,8.0,10.0,87,0.00,,---,0.01,VWS V14.01,2013-04-09 22:41:00,
2013-04-09 18:46:00,37.5,34.3,30.03,NNW,339,11.0,11.0,88,0.00,,---,0.01,VWS V14.01,2013-04-09 22:46:00,
2013-04-09 18:51:00,37.9,34.7,30.02,NNW,346,9.0,12.0,88,0.00,,---,0.01,VWS V14.01,2013-04-09 22:51:00,
2013-04-09 18:56:00,37.9,34.7,30.03,NNW,346,11.0,12.0,88,0.00,,---,0.01,VWS V14.01,2013-04-09 22:56:00,
2013-04-09 19:01:00,37.4,34.2,30.03,NNW,342,7.0,8.0,88,0.00,,---,0.01,VWS V14.01,2013-04-09 23:01:00,
2013-04-09 19:06:00,37.4,34.5,30.03,NNW,335,9.0,11.0,89,0.00,,---,0.01,VWS V14.01,2013-04-09 23:06:00,
2013-04-09 19:11:00,37.6,34.4,30.03,NNW,332,8.0,11.0,88,0.00,,---,0.01,VWS V14.01,2013-04-09 23:11:00,
2013-04-09 19:16:00,37.4,34.2,30.03,NNW,331,6.0,11.0,88,0.00,,---,0.01,VWS V14.01,2013-04-09 23:16:00,
2013-04-09 19:22:00,37.1,34.2,30.03,NNW,337,7.0,11.0,89,0.00,,---,0.01,VWS V14.01,2013-04-09 23:22:00,
2013-04-09 19:27:00,36.8,33.9,30.03,NNW,331,6.0,11.0,89,0.00,,---,0.01,VWS V14.01,2013-04-09 23:27:00,
2013-04-09 19:32:00,36.7,34.0,30.03,NNW,335,6.0,7.0,90,0.00,,---,0.01,VWS V14.01,2013-04-09 23:32:00,
2013-04-09 19:37:00,36.7,34.0,30.03,NNW,330,7.0,7.0,90,0.00,,---,0.01,VWS V14.01,2013-04-09 23:37:00,
2013-04-09 19:42:00,36.8,34.2,30.03,NW,325,6.0,7.0,90,0.00,,---,0.01,VWS V14.01,2013-04-09 23:42:00,
2013-04-09 19:47:00,36.8,34.2,30.03,NW,325,6.0,7.0,90,0.00,,---,0.01,VWS V14.01,2013-04-09 23:47:00,
2013-04-09 19:52:00,36.6,34.0,30.03,NW,320,6.0,7.0,90,0.00,,---,0.01,VWS V14.01,2013-04-09 23:52:00,
2013-04-09 19:57:00,36.6,34.0,30.03,NW,320,6.0,7.0,90,0.00,,---,0.01,VWS V14.01,2013-04-09 23:57:00,
2013-04-09 20:03:00,36.4,33.8,30.03,NW,320,6.0,7.0,90,0.00,,---,0.01,VWS V14.01,2013-04-10 00:03:00,
2013-04-09 20:08:00,36.3,33.7,30.03,NW,320,6.0,7.0,90,0.00,,---,0.01,VWS V14.01,2013-04-10 00:08:00,
2013-04-09 20:13:00,36.3,33.9,30.03,NW,308,7.0,7.0,91,0.00,,---,0.01,VWS V14.01,2013-04-10 00:13:00,
2013-04-09 20:18:00,36.2,33.8,30.04,NW,315,7.0,8.0,91,0.00,,---,0.01,VWS V14.01,2013-04-10 00:18:00,
2013-04-09 20:23:00,35.9,33.5,30.05,NW,320,8.0,9.0,91,0.00,,---,0.01,VWS V14.01,2013-04-10 00:23:00,
2013-04-09 20:28:00,35.7,33.3,30.05,NW,325,9.0,9.0,91,0.00,,---,0.01,VWS V14.01,2013-04-10 00:28:00,
2013-04-09 20:33:00,35.2,33.1,30.05,WSW,252,9.0,10.0,92,0.00,,---,0.01,VWS V14.01,2013-04-10 00:33:00,
2013-04-09 20:38:00,35.4,33.3,30.06,WSW,242,7.0,10.0,92,0.00,,---,0.01,VWS V14.01,2013-04-10 00:38:00,
2013-04-09 20:43:00,35.6,33.2,30.06,WSW,256,9.0,12.0,91,0.00,,---,0.01,VWS V14.01,2013-04-10 00:43:00,
2013-04-09 20:48:00,35.6,33.2,30.06,WSW,256,7.0,12.0,91,0.00,,---,0.01,VWS V14.01,2013-04-10 00:48:00,
2013-04-09 20:53:00,35.8,33.4,30.06,NNW,344,7.0,12.0,91,0.00,,---,0.01,VWS V14.01,2013-04-10 00:53:00,
2013-04-09 20:58:00,35.7,33.6,30.06,NNW,340,6.0,12.0,92,0.00,,---,0.01,VWS V14.01,2013-04-10 00:58:00,
2013-04-09 21:03:00,35.6,33.5,30.06,North,350,5.0,6.0,92,0.00,,---,0.01,VWS V14.01,2013-04-10 01:03:00,
2013-04-09 21:08:00,35.7,33.6,30.06,North,360,6.0,7.0,92,0.00,,---,0.01,VWS V14.01,2013-04-10 01:08:00,
2013-04-09 21:13:00,35.7,33.6,30.06,North,355,3.0,7.0,92,0.00,,---,0.01,VWS V14.01,2013-04-10 01:13:00,
2013-04-09 21:18:00,35.7,33.6,30.07,NNW,348,5.0,7.0,92,0.00,,---,0.01,VWS V14.01,2013-04-10 01:18:00,
2013-04-09 21:23:00,35.6,33.5,30.07,NNW,341,4.0,7.0,92,0.00,,---,0.01,VWS V14.01,2013-04-10 01:23:00,
2013-04-09 21:28:00,35.4,33.3,30.07,NNW,338,4.0,7.0,92,0.00,,---,0.01,VWS V14.01,2013-04-10 01:28:00,
2013-04-09 21:33:00,35.3,33.2,30.08,NNW,341,7.0,7.0,92,0.00,,---,0.01,VWS V14.01,2013-04-10 01:33:00,
2013-04-09 21:38:00,35.3,33.2,30.08,North,350,6.0,7.0,92,0.00,,---,0.01,VWS V14.01,2013-04-10 01:38:00,
2013-04-09 21:43:00,35.2,33.1,30.08,North,355,4.0,7.0,92,0.00,,---,0.01,VWS V14.01,2013-04-10 01:43:00,
2013-04-09 21:48:00,35.2,33.1,30.08,North,349,5.0,7.0,92,0.00,,---,0.01,VWS V14.01,2013-04-10 01:48:00,
2013-04-09 21:53:00,35.1,33.0,30.07,NNW,346,4.0,7.0,92,0.00,,---,0.01,VWS V14.01,2013-04-10 01:53:00,
2013-04-09 21:58:00,34.9,33.1,30.07,NNW,344,5.0,7.0,93,0.00,,---,0.01,VWS V14.01,2013-04-10 01:58:00,
2013-04-09 22:03:00,34.8,33.0,30.07,NNW,341,4.0,5.0,93,0.00,,---,0.01,VWS V14.01,2013-04-10 02:03:00,
2013-04-09 22:08:00,34.7,32.9,30.07,NNW,339,4.0,5.0,93,0.00,,---,0.01,VWS V14.01,2013-04-10 02:08:00,
2013-04-09 22:13:00,34.5,32.7,30.07,NNW,336,5.0,5.0,93,0.00,,---,0.01,VWS V14.01,2013-04-10 02:13:00,
2013-04-09 22:18:00,34.4,32.6,30.08,NNW,329,6.0,6.0,93,0.00,,---,0.01,VWS V14.01,2013-04-10 02:18:00,
2013-04-09 22:23:00,34.4,32.9,30.08,NNW,335,5.0,6.0,94,0.00,,---,0.01,VWS V14.01,2013-04-10 02:23:00,
2013-04-09 22:28:00,34.3,32.8,30.08,NNW,331,3.0,6.0,94,0.00,,---,0.01,VWS V14.01,2013-04-10 02:28:00,
2013-04-09 22:33:00,34.2,32.7,30.08,NNW,330,3.0,4.0,94,0.00,,---,0.01,VWS V14.01,2013-04-10 02:33:00,
2013-04-09 22:38:00,34.1,32.6,30.08,NW,325,5.0,5.0,94,0.00,,---,0.01,VWS V14.01,2013-04-10 02:38:00,
2013-04-09 22:43:00,34.0,32.5,30.08,NNW,335,4.0,5.0,94,0.00,,---,0.01,VWS V14.01,2013-04-10 02:43:00,
2013-04-09 22:48:00,34.1,32.6,30.08,NNW,339,3.0,5.0,94,0.00,,---,0.01,VWS V14.01,2013-04-10 02:48:00,
2013-04-09 22:53:00,34.1,32.6,30.08,NNW,346,5.0,6.0,94,0.00,,---,0.01,VWS V14.01,2013-04-10 02:53:00,
2013-04-09 22:58:00,34.1,32.6,30.08,North,353,6.0,7.0,94,0.00,,---,0.01,VWS V14.01,2013-04-10 02:58:00,
2013-04-09 23:03:00,34.1,32.6,30.08,North,5,5.0,7.0,94,0.00,,---,0.01,VWS V14.01,2013-04-10 03:03:00,
2013-04-09 23:08:00,34.1,32.6,30.08,North,356,4.0,8.0,94,0.00,,---,0.01,VWS V14.01,2013-04-10 03:08:00,
2013-04-09 23:13:00,34.1,32.6,30.08,North,7,3.0,8.0,94,0.00,,---,0.01,VWS V14.01,2013-04-10 03:13:00,
2013-04-09 23:18:00,34.1,32.6,30.08,North,11,2.0,8.0,94,0.00,,---,0.01,VWS V14.01,2013-04-10 03:18:00,
2013-04-09 23:24:00,34.0,32.5,30.07,NNE,17,3.0,8.0,94,0.00,,---,0.01,VWS V14.01,2013-04-10 03:24:00,
2013-04-09 23:29:00,34.1,32.6,30.08,North,8,7.0,8.0,94,0.00,,---,0.01,VWS V14.01,2013-04-10 03:29:00,
2013-04-09 23:34:00,34.0,32.5,30.08,North,9,4.0,7.0,94,0.00,,---,0.01,VWS V14.01,2013-04-10 03:34:00,
2013-04-09 23:39:00,33.8,32.3,30.08,NNE,20,5.0,7.0,94,0.00,,---,0.01,VWS V14.01,2013-04-10 03:39:00,
2013-04-09 23:44:00,33.7,32.2,30.07,NNE,12,4.0,8.0,94,0.00,,---,0.01,VWS V14.01,2013-04-10 03:44:00,
2013-04-09 23:49:00,33.6,32.1,30.07,NNE,26,5.0,9.0,94,0.00,,---,0.01,VWS V14.01,2013-04-10 03:49:00,
2013-04-09 23:54:00,33.6,32.1,30.07,North,8,7.0,9.0,94,0.00,,---,0.01,VWS V14.01,2013-04-10 03:54:00,
2013-04-09 23:59:00,33.6,32.1,30.07,NNE,13,5.0,9.0,94,0.00,,---,0.01,VWS V14.01,2013-04-10 03:59:00,